Volver al catálogo

COSMOS 2327

ActivoMilitarPO
NORAD 23773·PAYLOAD·🇷🇺 Russia

Lanzado Jan 16, 1996 desde Plesetsk Cosmodrome

Loading…

Próximos Pases (próximas 24 horas)

TLE

ActualizadoSource: Space-Track

Época: Sep 14, 2026, 17:16 UTC

1 23773U 96004A   26257.71946189  .00000044  00000-0  29694-4 0  9990
2 23773  82.9808  58.8826 0048059  10.4316   0.7124 13.74773675537938

Sigue COSMOS 2327 en tiempo real con AllMySat

Download on the App Store